Regional Weather Roundup
Issued by NWS Charleston, SC

Current Version | Previous Version | Graphics & Text | Print | Product List | Glossary On
Versions: 1 2 3 4 5 6 7 8 9 10 11 12 13 14 15 16 17 18 19 20 21 22 23 24 25 26 27 28 29 30 31 32 33 34 35 36 37 38 39 40 41 42 43 44 45 46 47 48 49 50
000 ASUS42 KCHS 210910 RWRCHS REGIONAL WEATHER ROUNDUP NATIONAL WEATHER SERVICE CHARLESTON SC 400 AM EST FRI NOV 21 2014 NOTE: "FAIR" INDICATES FEW OR NO CLOUDS BELOW 12,000 FEET WITH NO SIGNIFICANT WEATHER AND/OR OBSTRUCTIONS TO VISIBILITY. NOT ALL STATIONS ARE QUALITY CONTROLLED BY THE NATIONAL WEATHER SERVICE. USE DATA WITH CAUTION...ESPECIALLY DEWPOINT OBSERVATIONS. SCZ027-030-031-034>040-042>050-211000- ...SOUTH CAROLINA... CITY SKY/WX TMP DP RH WIND PRES REMARKS N CHARLESTON MOCLDY 46 36 68 W3 30.26R WATERFRONT PRK N/A 50 N/A N/A W5 N/A FORT JOHNSON NOT AVBL JOHNS ISLAND SUNNY 45 39 81 CALM 30.26S PINOPOLIS N/A 52 39 62 W6 30.15S MONCKS CORNER FAIR 45 41 87 CALM 30.25S SUMMERVILLE FAIR 37 37 100 CALM 30.26S BEAUFORT MCAS PTCLDY 45 37 73 NW3 30.27R BEAUFORT ARPT FAIR 46 41 81 W5 30.26S HILTON HEAD IS PTCLDY 43 37 81 W3 30.28R GEORGETOWN NOT AVBL WALTERBORO PTSUNNY 43 37 81 CALM 30.27R ORANGEBURG MOCLDY 46 34 62 NW5 30.25S BARNWELL N/A 37 36 93 CALM 30.27S AIKEN FAIR 36 34 93 W3 30.29R MANNING NOT AVBL KINGSTREE NOT AVBL COLUMBIA MOCLDY 37 32 82 SW5 30.24S WCI 33 SUMTER PTCLDY 38 35 89 S3 30.23R FLORENCE PTCLDY 47 32 56 W7 30.23S MYRTLE BEACH PTCLDY 45 36 70 W7 30.24F N MYRTLE BEACH PTCLDY 47 36 65 W6 30.23S $$ GAZ063-065-086>088-099>101-113>116-118-119-134-136>141-150-211000- ...GEORGIA... CITY SKY/WX TMP DP RH WIND PRES REMARKS SAVANNAH ARPT PTCLDY 40 34 79 CALM 30.29R HUNTER AAF PTCLDY 39 34 83 W5 30.26R WCI 35 FORT STEWART PTCLDY 38 35 88 CALM 30.27R STATESBORO NOT AVBL SYLVANIA MOSUNNY 41 39 94 CALM 30.28R CLAXTON FAIR 36 36 100 CALM 30.28S THOMSON PTCLDY 36 36 100 CALM 30.32R AUGUSTA-BUSH PTCLDY 34 33 96 CALM 30.28R AUGUSTA-DANIEL PTCLDY 48 33 56 NW8 30.27R SWAINSBORO FAIR 37 37 100 CALM 30.28S VIDALIA CLEAR 43 41 93 CALM 30.28S ALMA CLEAR 34 32 92 CALM 30.29R WAYCROSS CLEAR 38 37 94 CALM 30.29S JESUP FAIR 34 34 100 CALM 30.29S BRUNSWICK CLEAR 37 36 93 W3 30.30R SAINT SIMONS CLEAR 40 38 93 NW3 30.28S $$ SCZ027-028-034-036>038-045-046-048>050-GAZ119-141-211000- ...LAKE AND SUPPLEMENTAL COASTAL OBSERVATIONS... STATION/POSITION TIME TEMP WIND PRES WAVE SWELL AIR SEA DIR/SP/G HT/PER HT/PER/DIR (UTC) (F) (DEG/KT/KT) (MB) (FT/S) (FT/S/D) UPR LAKE MARION NOT AVBL WINYAH BAY 0800 50 280/ 5 1024.0S LAKE MURRAY 0800 49 280/ 9/ 12 1023.4S ACE BASIN NERRS 0800 46 CALM 1024.0S FORT PULASKI 0900 51 300/ 7/ 8 1025.3R SAPELO ISLAND NOT AVBL $$ ANZ835-935-AMZ111-154-330-350-352-354-374-450-454-472-211000- ...C-MAN AND BUOY OBSERVATIONS... STATION/POSITION TIME TEMP WIND PRES WAVE SWELL AIR SEA DIR/SP/G HT/PER HT/PER/DIR (UTC) (F) (DEG/KT/KT) (MB) (FT/S) (FT/S/D) FOLLY BEACH CMAN 0800 49 280/ 6/ 8 1024.8R BUOY 41004 0900 62 71 300/ 19/ 21 1023.6R 4/ 5 2/ 9 BUOY 41008 0900 58 64 310/ 12/ 16 1025.1S 1/ 8 2/120/ 8 5E ST. MARYS GA 0900 62 N/A 1/ 7 FRYING PAN BUOY 0900 60 65 290/ 19/ 23 1023.9S 6/ 6 BUOY 41025 0900 56 300/ 21/ 25 1021.4R 7/ 8 CAPE LOOKOUT NC 0800 55 280/ 21/ 24 1022.1R BUOY 41002 0847 69 73 300/ 16/ 19 1022.8F 5/ 6 2/250/12 BUOY 41010 0900 70 78 40/ 10/ 14 1022.8F 3/ 8 3/ 80/ 8 BUOY 41012 NOT AVBL ST AUGUSTINE FL 0900 49 330/ 5/ 6 1025.4R CAPERS NEARSHORE 0800 53 310/ 12/ 16 N/A FRIPP NEARSHORE NOT AVBL $$

USA.gov is the U.S. government's official web portal to all federal, state and local government web resources and services.